Tracking 20724 objects as of 3-Jun-2020
HD Live streaming from Space Station
objects crossing your sky now

STARLINK-1349

Track STARLINK-1349 now!
10-day predictions
STARLINK-1349 is classified as:


NORAD ID: 45587
Int'l Code: 2020-025BJ
Perigee: 386.0 km
Apogee: 387.5 km
Inclination: 53.0 °
Period: 92.1 minutes
Semi major axis: 6757 km
RCS: Unknown
Launch date: April 22, 2020
Source: United States (US)
Launch site: AIR FORCE EASTERN TEST RANGE (AFETR)
aabbcc
Your satellite tracking list
Your tracking list is empty




NASA's NSSDC Master Catalog

Two Line Element Set (TLE):
1 45587U 20025BJ  20155.25001157 -.00017299  00000-0 -18324-3 0  9993
2 45587  52.9971 195.1820 0001177 100.1070 137.9872 15.62786557  7214
Source of the keplerian elements: AFSPC